LFLC

Clermont-Ferrand Auvergne Airport

Airport
ICAO code
LFLC
IATA Code
CFE
Summary
ICAO Region
EUR
ICAO Territory
Location

Aulnat, Auvergne

Serving
Clermont-Ferrand
Elevation
1090 ft
Coordinates
45° 47' 12" N , 3° 10' 9" E
KCC
Metar
Observation
LFLC 010230Z AUTO 01007KT 7000 -DZ BKN009 BKN017 BKN033 06/05 Q1020 TEMPO 4000
Station
Clermont-Ferrand
Date/Time
2022-12-01 02:30:00
Wind direction
10°
Wind speed
07 kts
Lowest cloud amount
broken clouds
Temperature
6°C
Dew point
5°C
Humidity
93%
QNH
1020 hPa
Weather condition
n/a

Clermont-Ferrand Auvergne Airport is an airport serving the French city of Clermont-Ferrand. It is located 6.7 km east of the city, in Aulnat.

Climatology

Temperate Oceanic climate (Köppen climate classification Cfb).

Runways

Designator Length Width Surface Rops
08L/26R 0 0 UNK No/No
8/26 3015 45 ASP Yes/Yes

Airport map

Aerial View

SKYbrary Partners:

Safety knowledge contributed by: